Almeria, Spain

1:14 AM CEST en Agosto 15, 2018 (GMT +0200)
Almeria

Tiempo Historia de LEAM - Abril, 2018

Change the Weather History Date:

Lunes, Abril 16, 2018

  Actual Average Record
Temperature  
Temperatura media 60 ° F -  
Temperatura máxima 67 ° F 69 ° F 79 ° F (2017)
Temperatura mínima 54 ° F 57 ° F 50 ° F (2002)
Degree Days  
Grados día de calefacción 4    
Growing Degree Days 10 (Base 50)    
Moisture  
Punto de rocío 54 ° F    
Average Humidity 77    
Maximum Humidity 94    
Minimum Humidity 50    
Precipitación  
Precipitación 0.00 pul 0.02 pul - ()
Presión al nivel del mar  
Presión al nivel del mar 30.01 pul    
Viento  
Velocidad del viento 6 mph ()    
Velocidad máxima del viento 21 mph    
Max Gust Speed -    
Visibilidad 6.2 Millas    
Eventos      
Averages and records for this station are not official NWS values.
T = Trace of Precipitation, MM = Missing Value Source: Averaged Metar Reports

Daily Weather History Graph

Daily Weather History Graph

Search for Another Location

Airport or City:

Astronomía

Apr. 16, 2018 Salida Puesta
Hora real 7:34 AM CEST 8:44 PM CEST
Crepúsculo civil 7:07 AM CEST 9:11 PM CEST
Crepúsculo náutico 6:35 AM CEST 9:43 PM CEST
Crepúsculo astronómico 6:02 AM CEST 10:17 PM CEST
Luna 8:06 AM CEST (4/16) 9:18 PM CEST (4/16)
Horas de luz 14h 04m
Horas de luz
13h 10m
Luna nueva, 0% of the Moon is Illuminated
Abr 16
Luna nueva
Abr 22
Cuarto creciente
Abr 30
Luna llena
May 8
Cuarto menguante
May 15
Nueva

Hourly Weather History & Observations

Hora (CEST) Temp. Punto de rocío Humedad Presión Visibilidad Wind Dir Velocidad del viento Velocidad de ráfagas Precip Eventos Condiciones
12:00 AM 57 ° F 55 ° F 92% 30.02 pul - Sin viento Sin viento - -  
12:00 AM 57.2 ° F 55.4 ° F 94% 30.01 pul 6.2 mi Sin viento Sin viento - N/A   Desconocido
12:30 AM 57.2 ° F 55.4 ° F 94% 30.01 pul 6.2 mi ENE 4.6 mph - N/A   Desconocido
1:00 AM 57.2 ° F 55.4 ° F 94% 30.01 pul 6.2 mi NE 4.6 mph - N/A   Desconocido
1:30 AM 57.2 ° F 55.4 ° F 94% 30.01 pul 6.2 mi NNE 4.6 mph - N/A   Desconocido
2:00 AM 56 ° F 54 ° F 90% 29.99 pul - ENE 5.8 mph - -  
2:00 AM 55.4 ° F 53.6 ° F 94% 29.98 pul 6.2 mi ENE 5.8 mph - N/A   Desconocido
2:30 AM 55.4 ° F 53.6 ° F 94% 29.98 pul 6.2 mi ENE 3.5 mph - N/A   Desconocido
3:00 AM 57.2 ° F 53.6 ° F 88% 29.98 pul 6.2 mi Variable 2.3 mph - N/A   Desconocido
3:30 AM 55.4 ° F 53.6 ° F 94% 29.98 pul 6.2 mi Variable 1.2 mph - N/A   Desconocido
4:00 AM 55 ° F 54 ° F 94% 29.97 pul - Norte 2.3 mph - -  
4:00 AM 55.4 ° F 53.6 ° F 94% 29.98 pul - Norte 1.2 mph - N/A   Despejado
4:30 AM 57.2 ° F 55.4 ° F 94% 29.95 pul - SO 4.6 mph - N/A   Despejado
5:00 AM 57.2 ° F 53.6 ° F 88% 29.95 pul 6.2 mi Variable 8.1 mph - N/A   Parcialmente nublado
5:30 AM 57.2 ° F 53.6 ° F 88% 29.95 pul 6.2 mi Oeste 5.8 mph - N/A   Parcialmente nublado
6:00 AM 55 ° F 53 ° F 91% 29.97 pul - Norte 4.6 mph - -  
6:00 AM 55.4 ° F 53.6 ° F 94% 29.95 pul 6.2 mi Norte 3.5 mph - N/A   Parcialmente nublado
6:30 AM 55.4 ° F 53.6 ° F 94% 29.95 pul 6.2 mi Variable 2.3 mph - N/A   Parcialmente nublado
7:00 AM 56 ° F 53 ° F 88% 29.98 pul - Oeste 2.3 mph - -  
7:00 AM 57.2 ° F 53.6 ° F 88% 29.98 pul - Oeste 3.5 mph - N/A   Despejado
7:30 AM 57.2 ° F 53.6 ° F 88% 29.98 pul 6.2 mi Oeste 5.8 mph - N/A   Parcialmente nublado
8:00 AM 56 ° F 53 ° F 88% 29.99 pul 28 mi Sin viento Sin viento - -   Nubes dispersas
8:00 AM 55.4 ° F 53.6 ° F 94% 29.98 pul 6.2 mi Sin viento Sin viento - N/A   Parcialmente nublado
8:30 AM 57.2 ° F 53.6 ° F 88% 29.98 pul 6.2 mi Variable 1.2 mph - N/A   Parcialmente nublado
9:00 AM 60 ° F 55 ° F 80% 30.01 pul - ESE 1.2 mph - -  
9:00 AM 59.0 ° F 55.4 ° F 88% 30.01 pul 6.2 mi Variable 1.2 mph - N/A   Parcialmente nublado
9:30 AM 60.8 ° F 55.4 ° F 82% 30.01 pul 6.2 mi OSO 3.5 mph - N/A   Parcialmente nublado
10:00 AM 62 ° F 55 ° F 71% 30.01 pul - SSO 8.1 mph - -  
10:30 AM 62.6 ° F 53.6 ° F 72% 30.01 pul - SSO 9.2 mph - N/A   Despejado
11:00 AM 63 ° F 54 ° F 66% 30.03 pul 31 mi SSO 16.1 mph - -   Nubes dispersas
11:00 AM 62.6 ° F 53.6 ° F 72% 30.01 pul 6.2 mi SSO 13.8 mph - N/A   Parcialmente nublado
11:30 AM 62.6 ° F 53.6 ° F 72% 30.01 pul 6.2 mi SSO 15.0 mph - N/A   Parcialmente nublado
12:00 PM 62.6 ° F 53.6 ° F 72% 30.04 pul 6.2 mi SO 16.1 mph - N/A   Parcialmente nublado
12:30 PM 62.6 ° F 53.6 ° F 72% 30.04 pul 6.2 mi SO 17.3 mph - N/A   Parcialmente nublado
1:00 PM 64.4 ° F 53.6 ° F 68% 30.04 pul 6.2 mi SO 18.4 mph - N/A   Parcialmente nublado
1:30 PM 64.4 ° F 53.6 ° F 68% 30.01 pul 6.2 mi SO 20.7 mph - N/A   Parcialmente nublado
2:00 PM 65 ° F 53 ° F 56% 30.02 pul 28 mi SO 20.7 mph - -   Nubes dispersas
2:00 PM 64.4 ° F 51.8 ° F 64% 30.01 pul 6.2 mi SO 19.6 mph - N/A   Parcialmente nublado
2:30 PM 64.4 ° F 51.8 ° F 64% 30.01 pul 6.2 mi SO 18.4 mph - N/A   Parcialmente nublado
3:00 PM 66 ° F 54 ° F 55% 30.01 pul - SO 18.4 mph - -  
3:00 PM 64.4 ° F 53.6 ° F 68% 30.01 pul 6.2 mi SO 19.6 mph - N/A   Parcialmente nublado
3:30 PM 64.4 ° F 53.6 ° F 68% 29.98 pul - SO 17.3 mph - N/A   Despejado
4:00 PM 67 ° F 53 ° F 51% 30.00 pul - SO 18.4 mph - -  
4:00 PM 66.2 ° F 51.8 ° F 60% 29.98 pul - SO 17.3 mph - N/A   Despejado
4:30 PM 66.2 ° F 51.8 ° F 60% 29.98 pul - SO 19.6 mph - N/A   Despejado
5:00 PM 67 ° F 53 ° F 50% 29.99 pul 28 mi SO 18.4 mph - -   Despejado
5:00 PM 66.2 ° F 51.8 ° F 60% 29.98 pul - SO 18.4 mph - N/A   Despejado
5:30 PM 66.2 ° F 51.8 ° F 60% 29.98 pul - SO 13.8 mph - N/A   Despejado
6:00 PM 66 ° F 54 ° F 55% 30.00 pul - SO 12.7 mph - -  
6:00 PM 64.4 ° F 53.6 ° F 68% 29.98 pul - SO 12.7 mph - N/A   Despejado
6:30 PM 64.4 ° F 53.6 ° F 68% 30.01 pul - SO 11.5 mph - N/A   Despejado
7:00 PM 64 ° F 54 ° F 60% 30.02 pul - SO 12.7 mph - -  
7:00 PM 62.6 ° F 53.6 ° F 72% 30.01 pul - SO 9.2 mph - N/A   Despejado
7:30 PM 62.6 ° F 53.6 ° F 72% 30.01 pul - SSO 5.8 mph - N/A   Despejado
8:00 PM 64 ° F 53 ° F 59% 30.04 pul 28 mi Sur 4.6 mph - -   Despejado
8:30 PM 60.8 ° F 53.6 ° F 77% 30.04 pul - SE 4.6 mph - N/A   Despejado
9:00 PM 60 ° F 54 ° F 74% 30.07 pul - Este 4.6 mph - -  
9:00 PM 59.0 ° F 53.6 ° F 82% 30.06 pul - Este 5.8 mph - N/A   Despejado
9:30 PM 59.0 ° F 53.6 ° F 82% 30.06 pul - ENE 4.6 mph - N/A   Despejado
10:00 PM 59.0 ° F 51.8 ° F 77% 30.06 pul - NE 5.8 mph - N/A   Despejado
10:30 PM 59.0 ° F 51.8 ° F 77% 30.09 pul - NE 3.5 mph - N/A   Despejado
11:00 PM 59.0 ° F 51.8 ° F 77% 30.09 pul 6.2 mi Variable 2.3 mph - N/A   Desconocido
11:30 PM 57.2 ° F 51.8 ° F 82% 30.09 pul 6.2 mi Variable 2.3 mph - N/A   Desconocido